Location: Newark
(33.6333°S, 78.8500°W)
Time: 04:56:34
(UTC+00:00)

Vanguard 1 - Visible Passes

Search period start: 23 September 2019 00:00
Search period end: 03 October 2019 00:00
Orbit: 654 x 3830 km, 34.3° (Epoch: 21 September)

Date Brightness Start Highest point End Pass type
(mag) Time Alt. Az. Time Alt. Az. Time Alt. Az.
23 Sep 11.6 00:23:54 10° W 00:31:44 59° NNW 00:42:40 18° NE visible
23 Sep 12.9 02:45:24 10° W 02:54:56 28° NNW 02:55:24 28° NNW visible
24 Sep 11.9 00:45:02 10° W 00:53:00 48° NNW 01:02:44 20° NE visible
24 Sep 13.2 03:07:53 10° WNW 03:15:29 20° NW 03:15:29 20° NW visible
25 Sep 12.2 01:06:19 10° W 01:14:19 38° NNW 01:22:51 21° NNE visible
25 Sep 13.5 03:31:46 10° WNW 03:35:36 13° NW 03:35:36 13° NW visible
26 Sep 12.6 01:27:52 10° W 01:35:41 29° NNW 01:43:02 19° NNE visible
26 Sep 11.4 23:28:21 10° W 23:34:42 51° NNW 23:46:01 10° NE visible
27 Sep 12.9 01:49:55 10° WNW 01:57:06 22° NNW 02:03:15 16° N visible
27 Sep 11.8 23:49:30 10° W 23:55:54 40° NNW 00:06:50 10° NE visible
28 Sep 13.2 02:12:56 10° WNW 02:18:37 15° NNW 02:23:32 12° N visible
29 Sep 12.2 00:10:52 10° W 00:17:09 30° NNW 00:27:15 10° NNE visible
30 Sep 12.6 00:32:37 10° WNW 00:38:29 22° NNW 00:47:06 10° NNE visible
01 Oct 13.0 00:55:10 10° WNW 00:59:51 15° NNW 01:05:59 10° N visible
